PDT,Max TemperatureF,Mean TemperatureF,Min TemperatureF,Max Dew PointF,MeanDew PointF,Min DewpointF,Max Humidity, Mean Humidity, Min Humidity, Max Sea Level PressureIn, Mean Sea Level PressureIn, Min Sea Level PressureIn, Max VisibilityMiles, Mean VisibilityMiles, Min VisibilityMiles, Max Wind SpeedMPH, Mean Wind SpeedMPH, Max Gust SpeedMPH,PrecipitationIn, CloudCover, Events, WindDirDegrees
2013-9-1,93,78,63,56,53,50,70,46,24,29.83,29.77,29.68,10,10,10,21,7,37,0.00,0,,309
2013-9-2,90,79,69,55,53,52,57,43,28,29.85,29.81,29.75,10,10,10,23,14,30,0.00,1,,309
2013-9-3,87,77,68,56,54,52,61,46,31,29.92,29.88,29.83,10,10,10,20,13,30,0.00,1,,313
2013-9-4,86,75,66,56,55,53,68,52,34,29.96,29.92,29.87,10,10,10,18,11,32,0.00,2,,314
2013-9-5,79,70,61,61,57,53,88,66,47,29.99,29.90,29.81,10,10,6,25,17,38,0.19,2,Rain-Thunderstorm,313
2013-9-6,73,65,57,59,56,53,93,76,53,30.10,30.05,29.99,10,10,6,21,6,28,0.30,6,Rain,300
2013-9-7,84,68,55,56,53,51,93,63,34,30.10,30.03,29.93,10,10,10,7,3,,0.00,0,,103
2013-9-8,88,72,57,60,54,49,83,57,26,30.08,30.01,29.92,10,10,10,9,4,,0.00,1,,107
2013-9-9,91,75,59,62,58,55,87,58,30,29.99,29.91,29.82,10,10,10,15,8,23,0.00,0,,317
2013-9-10,96,78,61,61,55,46,87,53,19,29.96,29.89,29.81,10,10,10,13,4,23,0.00,0,,135
2013-9-11,99,78,59,54,52,48,78,47,18,29.99,29.92,29.84,10,10,10,7,1,,0.00,0,,92
2013-9-12,96,78,60,61,56,51,78,52,24,29.95,29.87,29.77,10,10,10,20,7,30,0.00,0,,311
2013-9-13,89,80,70,62,60,59,73,56,38,29.85,29.78,29.69,10,10,10,23,16,31,0.00,0,,319
2013-9-14,97,78,61,63,58,52,81,57,22,29.82,29.73,29.63,10,10,10,13,7,,0.00,0,,311
2013-9-15,82,74,66,62,59,55,81,65,47,29.81,29.68,29.62,10,10,8,31,10,50,0.07,0,Rain-Thunderstorm,310
2013-9-16,75,68,62,54,52,51,70,58,43,29.92,29.87,29.81,10,10,10,18,13,29,0.00,1,,303
2013-9-17,73,67,61,53,49,41,75,57,31,29.91,29.82,29.77,10,10,10,28,12,37,0.00,0,,301
2013-9-18,75,64,53,48,44,40,71,51,29,30.04,30.01,29.93,10,10,10,21,11,28,0.00,1,,277
2013-9-19,82,63,44,45,42,39,82,54,21,30.08,29.95,29.80,10,10,10,14,4,,0.00,0,,89
2013-9-20,82,63,45,54,44,38,78,53,21,29.80,29.68,29.57,10,10,2,22,5,30,0.01,1,Rain,297
2013-9-21,75,64,55,55,51,48,87,67,41,29.73,29.68,29.64,10,10,10,20,5,25,0.00,3,Rain,292
2013-9-22,66,58,51,55,50,46,90,77,48,29.81,29.74,29.68,10,10,7,13,5,,0.10,6,Rain,322
2013-9-23,66,58,53,51,50,48,86,72,60,29.96,29.92,29.83,10,10,10,14,5,25,0.00,8,,321
2013-9-24,64,58,52,50,46,43,86,69,47,29.95,29.88,29.83,10,10,10,21,7,25,0.00,5,,287
2013-9-25,66,58,51,45,44,42,77,61,42,29.95,29.87,29.82,10,10,10,17,11,26,0.01,3,Rain,300
2013-9-26,70,60,51,46,44,40,80,59,35,30.11,30.03,29.97,10,10,10,16,12,26,0.00,2,,313
2013-9-27,63,56,50,54,49,43,100,80,48,30.12,30.04,29.93,10,10,6,14,6,,0.12,6,Rain,293
2013-9-28,69,60,53,60,54,51,100,90,59,29.91,29.71,29.47,10,9,2,24,2,38,0.43,8,Rain,267
2013-9-29,59,52,46,55,49,44,97,82,67,29.70,29.61,29.38,10,10,9,20,5,25,0.33,7,Rain,123
2013-9-30,64,58,51,49,43,37,80,63,43,29.98,29.82,29.57,10,10,10,22,9,39,0.00,4,,295